Retour au catalogue

NOAA 16 DEB

ActifSSO
NORAD 41378·DEBRIS·🇺🇸 United States

Lancé Sep 21, 2000 depuis Vandenberg Space Force Base

Loading…

Prochains Passages (prochaines 24 heures)

TLE

FraisSource: Space-Track

Époque: Sep 14, 2026, 00:03 UTC

1 41378U 00055JX  26257.00230046  .00001739  00000-0  83437-3 0  9998
2 41378  98.6314 269.8380 0039208 241.1197 118.6043 14.19809053548942

Suivez NOAA 16 DEB en temps réel avec AllMySat

Download on the App Store